Weather History for KABQ - October, 2012

Change the Weather History Date:

Saturday, October 6, 2012

  Actual Average Record
Temperature  
Mean Temperature 63 °F 61 °F  
Max Temperature 79 °F 73 °F 87 °F (1956)
Min Temperature 46 °F 50 °F 29 °F (1915)
Degree Days  
Heating Degree Days 2 4  
Month to date heating degree days 2 21  
Since 1 July heating degree days 10 47  
Cooling Degree Days 0 1  
Month to date cooling degree days 21 6  
Year to date cooling degree days 1764 1318  
Growing Degree Days 10 (Base 50)    
Moisture  
Dew Point 33 °F    
Average Humidity 37    
Maximum Humidity 61    
Minimum Humidity 13    
Precipitation  
Precipitation T in 0.04 in 1.15 in (1901)
Month to date precipitation T 0.25  
Year to date precipitation 5.23 7.61  
Snow  
Snow 0.00 in - - ()
Month to date snowfall 0.0  
Since 1 July snowfall 0.0  
Since 1 September snowfall 0.0  
Snow Depth 0.00 in    
Sea Level Pressure  
Sea Level Pressure 29.88 in    
Wind  
Wind Speed 15 mph (East)    
Max Wind Speed 39 mph    
Max Gust Speed 46 mph    
Visibility 10 miles    
Events Rain    
T = Trace of Precipitation, MM = Missing Value Source: NWS Daily Summary

Daily Weather History Graph

Daily Weather History Graph

Search for Another Location

Airport or City:

Trip Planner

Search our weather history database for the weather conditions in past years. The results will help you decide how hot, cold, wet, or windy it might be!

Date:

Astronomy

Oct. 06, 2012 Rise Set
Actual Time 7:05 AM MDT 6:42 PM MDT
Civil Twilight 6:40 AM MDT 7:07 PM MDT
Nautical Twilight 6:10 AM MDT 7:37 PM MDT
Astronomical Twilight 5:41 AM MDT 8:06 PM MDT
Moon 11:10 PM MDT (10/6) 12:51 PM MDT (10/6)
Length of Visible Light 12h 27m
Length of Day
11h 37m
Waning Gibbous, 65% of the Moon is Illuminated
Oct 6
Waning Gibbous
Oct 8
Last Quarter
Oct 15
New
Oct 21
First Quarter
Oct 29
Full

Hourly Weather History & Observations

Time (MDT) Temp. Windchill Dew Point Humidity Pressure Visibility Wind Dir Wind Speed Gust Speed Precip Events Conditions
12:52 AM 62.1 °F - 34.0 °F 35% 29.87 in 10.0 mi East 16.1 mph - N/A   Overcast
1:52 AM 61.0 °F - 35.1 °F 38% 29.86 in 10.0 mi East 21.9 mph - N/A   Overcast
2:52 AM 60.1 °F - 35.1 °F 39% 29.88 in 10.0 mi SSE 5.8 mph - N/A   Overcast
3:52 AM 60.1 °F - 35.1 °F 39% 29.86 in 10.0 mi East 9.2 mph - N/A   Overcast
4:52 AM 59.0 °F - 36.0 °F 42% 29.89 in 10.0 mi NNW 9.2 mph - N/A   Overcast
5:52 AM 57.0 °F - 37.9 °F 49% 29.91 in 10.0 mi North 6.9 mph - N/A   Overcast
6:52 AM 55.0 °F - 37.9 °F 53% 29.92 in 10.0 mi North 4.6 mph - N/A   Overcast
7:52 AM 54.0 °F - 37.9 °F 55% 29.94 in 10.0 mi North 4.6 mph - N/A   Mostly Cloudy
8:52 AM 54.0 °F - 37.9 °F 55% 29.96 in 10.0 mi North 5.8 mph - N/A   Mostly Cloudy
9:52 AM 57.9 °F - 37.9 °F 47% 29.94 in 10.0 mi North 3.5 mph - N/A   Scattered Clouds
10:52 AM 61.0 °F - 36.0 °F 39% 29.93 in 10.0 mi Calm Calm - N/A   Mostly Cloudy
11:52 AM 66.9 °F - 34.0 °F 30% 29.90 in 10.0 mi SW 6.9 mph - N/A   Mostly Cloudy
12:52 PM 71.1 °F - 32.0 °F 24% 29.86 in 10.0 mi SW 9.2 mph - N/A   Scattered Clouds
1:52 PM 75.0 °F - 27.0 °F 17% 29.81 in 10.0 mi Variable 5.8 mph - N/A   Mostly Cloudy
2:52 PM 77.0 °F - 27.0 °F 16% 29.77 in 10.0 mi SSW 10.4 mph 19.6 mph N/A   Scattered Clouds
3:52 PM 78.1 °F - 24.1 °F 14% 29.75 in 10.0 mi SW 18.4 mph 26.5 mph N/A   Scattered Clouds
4:52 PM 77.0 °F - 23.0 °F 13% 29.74 in 10.0 mi SW 16.1 mph 24.2 mph N/A   Mostly Cloudy
5:52 PM 75.9 °F - 21.9 °F 13% 29.75 in 10.0 mi WSW 15.0 mph - N/A   Mostly Cloudy
6:52 PM 75.0 °F - 21.9 °F 14% 29.78 in 10.0 mi WSW 10.4 mph - N/A   Mostly Cloudy
7:27 PM 60.8 °F - 35.6 °F 39% 30.00 in 10.0 mi East 23.0 mph 38.0 mph N/A   Mostly Cloudy
7:52 PM 55.9 °F - 36.0 °F 47% 29.88 in 10.0 mi East 31.1 mph 40.3 mph N/A   Mostly Cloudy
8:52 PM 53.1 °F - 37.0 °F 55% 29.92 in 10.0 mi East 34.5 mph 43.7 mph 0.00 in Rain Light Rain
9:52 PM 51.1 °F - 36.0 °F 56% 29.95 in 10.0 mi East 33.4 mph 41.4 mph 0.00 in   Overcast
10:52 PM 48.9 °F - 36.0 °F 61% 29.97 in 10.0 mi East 34.5 mph 43.7 mph N/A   Overcast
11:52 PM 46.0 °F 35.9 °F 33.1 °F 61% 29.96 in 10.0 mi East 35.7 mph 42.6 mph N/A   Mostly Cloudy